Location: Anuling
(14.1239°N, 120.8922°E)
Time: 00:45:43
(UTC+00:00)

GPS 2-17 Rocket1 - Pass Details

Date: 12 April 2026
Orbit: 544 x 613 km, 20.3° (Epoch: 19 May)

Event Time Altitude Azimuth Distance (km) Brightness Sun altitude
Rises 10:42:06 0° 283° (WNW) 2,858 9.0 -8.6°
Reaches altitude 10° 10:44:35 10° 291° (WNW) 1,954 7.2 -9.2°
Maximum altitude 10:48:50 37° 359° (N) 946 4.1 -10.2°
Drops below altitude 10° 10:53:04 10° 67° (ENE) 1,940 5.1 -11.2°
Enters shadow 10:53:04 10° 67° (ENE) 1,941 5.1 -11.2°
